Regional Weather Roundup
Issued by NWS Newport/Morehead, NC

Current Version | Previous Version | Text Only | Print | Product List | Glossary On
Versions: 1 2 3 4 5 6 7 8 9 10 11 12 13 14 15 16 17 18 19 20 21 22 23 24 25 26 27 28 29 30 31 32 33 34 35 36 37 38 39 40 41 42 43 44 45 46 47 48 49 50
000
ASUS42 KMHX 171525
RWRMHX
WEATHER ROUNDUP FOR EASTERN NORTH CAROLINA
NATIONAL WEATHER SERVICE NEWPORT/MOREHEAD CITY NC
1000 AM EST SAT FEB 17 2018

NOTE: "FAIR" INDICATES FEW OR NO CLOUDS BELOW 12,000 FEET
WITH NO SIGNIFICANT WEATHER AND/OR OBSTRUCTIONS TO VISIBILITY

NCZ015>017-031-032-045>047-102-103-171600-
NORTH COAST

CITY           SKY/WX    TMP DP  RH WIND       PRES   REMARKS
EDENTON        CLOUDY    49  40  70 E9G17     30.35F
ELIZABETH CITY FAIR      47  39  74 NE15      30.35F
KITTY HAWK     NOT AVBL
MANTEO         CLOUDY    48  38  69 NE12      30.34S

$$

NCZ045>047-081-094-103-104-171600-
CENTRAL COAST

CITY           SKY/WX    TMP DP  RH WIND       PRES   REMARKS
FRISCO         CLOUDY    51  42  71 NE12G22   30.31S

$$

NCZ095-097-098-100-101-171600-
SOUTHERN COAST

CITY           SKY/WX    TMP DP  RH WIND       PRES   REMARKS
BEAUFORT       CLOUDY    51  42  71 NE13G24   30.29F
CEDAR ISLAND   NOT AVBL
JACKSONVILLE   CLOUDY    51  41  68 NE10      30.28F
PINEY ISLAND   NOT AVBL
WILMINGTON     CLOUDY    54  42  64 E14       30.27F


$$

NCZ011>013-027>030-043-044-078>080-089-090>093-098-171600-
COASTAL PLAIN

CITY           SKY/WX    TMP DP  RH WIND       PRES   REMARKS
AHOSKIE        CLOUDY    43  33  68 E7        30.33F
CLINTON        PTSUNNY   51  41  68 E7        30.28F
ELIZABETHTOWN  NOT AVBL
GOLDSBORO      CLOUDY    48  36  64 E13       30.29S
GREENVILLE     FAIR      46  36  66 E9        30.32F
HAVELOCK       CLOUDY    51  44  77 NE14G25   30.31F
KENANSVILLE    CLOUDY    48  37  66 E8        30.30S
KINSTON        CLOUDY    46  37  71 E13       30.32S
NEW BERN       CLOUDY    47  40  76 E12       30.32F
RICHLANDS      CLOUDY    50  41  71 NE12      30.30F
ROCKY MOUNT    CLOUDY    45  35  68 VRB7      30.32F
WASHINGTON     CLOUDY    46  38  74 E8        30.32F
WHITEVILLE     CLOUDY    55  44  65 NE13      30.25S

$$

AMZ130-135-150-152-154-156-158-170-250-252-270-ANZ085-086-088-633-658-670-171600-
MARINE OBSERVATIONS

STATION/POSITION TIME  TEMP    WIND        PRES    WAVE   SWELL
                       AIR SEA DIR/SP/G            HT/PER HT/PER
                 (UTC) (F)     (DEG/KT/KT) (MB)    (FT/S) (FT/S)
CHESAPEAKE LIGHT NOT AVBL
64 E VA BEACH    1450   46 50   60/ 16/ 21 1027.6    6/ 7   3/ 9
DUCK             1500   45 44   40/ 14/ 16 1026.8
2 E DUCK         1430      45                N/A     5/ 7
OREGON INLET     1500   47 53   30/  7/ 10 1026.7
13E OREGON INLT  1448      45                N/A     6/ 7   5/ 7
HATTERAS CG      1500   50 59   50/ 12/ 19 1025.9
DIAMOND BUOY     1510   58 70   30/ 19/ 23 1025.4
CAPE LOOKOUT     1500           30/ 21/ 25 1025.7
BEAUFORT LAB     1500   50 53   30/ 11/ 17 1025.9
30 SE NEW RVR IN 1408   55 68   60/ 19/ 25 1025.0
30 SE NEW RVR IN 1430      68                N/A     7/ 6   2/11
27 SE WRIGHTSVLE 1408   56 65   70/ 23/ 35 1024.6
5 SE WRIGHTSVLE  1508   51 53   60/ 17/ 21 1024.4
225 S CAPE HAT   1450   71 72   80/ 14/ 16 1022.4    6/ 8   5/ 8
41 SE CHARLESTON 1510   68 69   80/ 16/ 19 1022.0

$$




USA.gov is the U.S. government's official web portal to all federal, state and local government web resources and services.